[[{"header":{"parameterUnit":"m.s-1","parameterCategory":1,"la1":30.2991,"la2":30.254,"lo1":-89.0895,"lo2":-89.0444,"dy":0.0017,"dx":0.0017,"nx":28,"ny":28,"refTime":"2026-02-06T09:00:00:Z","depth":0,"parameterNumber":2,"parameterNumberName":"U-component_of_WINDS"},"data":[0,0,0,0,0,0,0,0,0,0,0,0,0,0,0,0,0,0,0,0,0,0,0,0,0,0,0,0,0,0,0,0,0,0,0,0,0,0,0,0,0,0,0,0,0,0,0,0,0,0,0,0,0,0,0,0,0,0,2.6667,2.6669,0,2.6768,2.6769,2.677,2.6726,2.6723,2.6721,2.6718,2.6822,2.6827,2.6832,0,0,0,0,0,0,0,0,0,0,0,0,0,2.6438,2.6442,2.6667,2.6669,2.667,2.6768,2.6769,2.677,2.6726,2.6723,2.672,2.6717,2.682,2.6826,2.6832,0,0,0,0,0,0,0,0,0,0,0,0,0,2.6538,2.6444,2.6667,2.666,2.666,2.6767,2.6769,2.6771,2.6727,2.6723,2.6719,2.6716,2.6818,2.6825,2.6833,2.6954,0,0,2.6856,2.6859,0,0,0,0,0,0,0,0,2.6532,2.6546,2.6659,2.666,2.6661,2.673,2.6726,2.6832,2.6728,2.6701,2.6718,2.6714,2.6794,2.6804,2.6831,2.6959,2.6963,2.6857,2.6861,2.6864,2.6867,0,0,0,0,0,0,0,2.6525,2.6542,2.6707,2.6661,2.6662,2.6651,2.6661,2.6746,2.6767,2.6703,2.67,2.6713,2.6794,2.6823,2.6833,2.6965,2.6856,2.6863,2.6868,2.6871,2.7199,2.7202,0,0,0,0,0,0,2.6518,2.6536,2.6704,2.671,2.6586,2.6659,2.667,2.6712,2.6766,2.6771,2.6716,2.671,2.6812,2.6824,2.6836,2.6982,2.6864,2.6872,2.6876,2.7194,2.7199,2.7204,0,0,0,0,0,0,2.6514,2.6534,2.67,2.6623,2.6643,2.6666,2.6714,2.6716,2.6745,2.6776,2.678,2.6742,2.681,2.6825,2.6925,2.6985,2.6875,2.6882,2.719,2.7196,2.7202,2.7275,0,0,0,0,0,0,2.6507,2.6532,2.6578,2.6624,2.6647,2.6787,2.6718,2.672,2.6758,2.6752,2.6801,2.6806,2.6808,2.6914,2.6933,2.6994,2.6888,2.7184,2.7192,2.72,2.7268,2.7283,2.7297,0,0,0,0,0,2.6499,2.6595,2.6581,2.6601,2.6705,2.6791,2.6804,2.6805,2.6763,2.681,2.683,2.6804,2.6976,2.6925,2.6945,2.701,2.718,2.719,2.7199,2.7261,2.728,2.7296,0,0,0,0,0,0,2.6556,2.6601,2.6586,2.6699,2.6741,2.6783,2.6842,2.6825,2.688,2.6872,2.687,2.6881,2.6985,2.7007,2.6949,2.713,2.7072,2.7086,2.7112,2.713,2.7145,2.7137,2.6894,0,0,0,0,0,2.6581,2.6647,2.6683,2.6779,2.6801,2.6818,2.6855,2.6852,2.6896,2.6914,2.6941,2.6985,2.7049,2.7091,2.7151,2.7271,2.7281,2.7325,2.734,2.7351,2.7364,2.743,2.745,2.7235,2.7235,2.7234,0,0,2.6635,2.6668,2.6709,2.6791,2.6824,2.6892,2.6833,2.6908,2.6959,2.6925,2.7021,2.7043,2.7092,2.7202,2.7252,2.7224,2.7426,2.7363,2.7372,2.7378,2.7442,2.7462,2.748,2.7241,2.724,2.7239,0,0,2.6768,2.6799,2.6883,2.6917,2.6967,2.6978,2.6998,2.7043,2.7056,2.7152,2.7129,2.719,2.7299,2.7335,2.7368,2.7516,2.7495,2.7536,2.7612,2.7676,2.7693,2.7708,2.7762,2.7781,2.7548,2.7548,2.7548,0,2.6828,2.693,2.6928,2.7006,2.7043,2.7016,2.7101,2.7134,2.7202,2.7228,2.7195,2.7333,2.7364,2.7484,2.752,2.7547,2.7571,2.753,2.7691,2.7706,2.772,2.7771,2.7791,2.7552,2.7552,2.7551,2.7551,0,2.7002,2.7073,2.7135,2.7202,2.7246,2.7327,2.7338,2.7383,2.7376,2.7391,2.749,2.7526,2.7594,2.7622,2.7616,2.7741,2.7722,2.769,2.7632,2.7745,2.7793,2.7813,2.7559,2.7557,2.7556,2.7555,0,0,2.7173,2.7238,2.7261,2.7291,2.7345,2.74,2.748,2.7546,2.7586,2.7633,2.7701,2.7795,2.7766,2.7804,2.7801,2.7858,2.7974,2.7819,2.7821,2.7848,2.8116,2.814,2.8162,2.796,2.7964,2.7967,2.8112,0,2.7311,2.7451,2.7452,2.7582,2.7648,2.7624,2.7693,2.7734,2.775,2.7809,2.7826,2.7894,2.785,2.7873,2.7928,2.7948,2.8028,2.7938,2.8024,2.8027,2.8013,2.8187,2.8213,2.8348,2.8131,2.8134,2.8136,0,2.749,2.7544,2.768,2.7725,2.7753,2.7815,2.7877,2.7933,2.798,2.7987,2.8029,2.8019,2.8101,2.804,2.8154,2.8093,2.8128,2.8144,2.8149,2.8158,2.8089,2.8202,2.8391,2.8411,2.8166,2.8163,2.8161,0,2.7602,2.7709,2.7804,2.783,2.7885,2.793,2.7955,2.7997,2.8038,2.8092,2.8118,2.818,2.8215,2.8264,2.8271,2.8226,2.8387,2.8325,2.8396,2.8396,2.8431,2.8429,2.863,2.8453,2.8453,2.8452,2.8452,0,2.7756,2.784,2.7855,2.7914,2.8008,2.8009,2.8103,2.8124,2.8162,2.8225,2.8208,2.8267,2.8273,2.8334,2.834,2.8435,2.845,2.8459,2.846,2.8461,2.846,2.8485,2.8476,2.8458,2.8457,2.8455,2.8455,0,2.7898,2.7911,2.8013,2.8057,2.807,2.8138,2.8175,2.8232,2.8246,2.8326,2.8345,2.8367,2.8439,2.8451,2.8535,2.8539,2.8653,2.8643,2.8637,2.8636,2.8706,2.87,2.893,2.8961,2.8764,2.8765,2.8767,0,2.7995,2.806,2.811,2.8151,2.8179,2.8245,2.8286,2.8289,2.8333,2.8391,2.8441,2.8511,2.8567,2.8683,2.8707,2.8772,2.8765,2.8841,2.8774,2.8774,2.8767,2.8763,2.877,2.8854,2.8856,2.8858,2.8859,0,2.8168,2.8171,2.8231,2.8294,2.8343,2.8393,2.8439,2.8474,2.8484,2.8534,2.8607,2.8651,2.8737,2.8807,2.8871,2.8897,2.8881,2.888,2.89,2.8902,2.8897,2.8902,2.8673,2.8875,2.8873,2.8872,2.8871,2.8871,2.8291,2.8348,2.8392,2.846,2.8495,2.854,2.8595,2.8617,2.8678,2.8748,2.8747,2.8827,2.8873,2.8958,2.8988,2.9052,2.9027,2.9056,2.9063,2.9071,2.9078,2.8886,2.9064,2.9063,2.9063,2.9062,2.9062,0,2.8463,2.8491,2.8553,2.8619,2.8673,2.8652,2.8703,2.8749,2.882,2.8864,2.8919,2.9004,2.9072,2.9102,2.9169,2.9215,2.9209,2.9232,2.9229,2.9236,2.9095,2.9072,2.9236,2.9236,2.9236,2.9236,2.9236,2.9236,2.8559,2.8654,2.8663,2.8776,2.8803,2.8882,2.8913,2.8954,2.8989,2.9085,2.9141,2.916,2.9199,2.9269,2.9331,2.9338,2.9364,2.9391,2.9395,2.9263,2.9246,2.9229,2.9207,2.9397,2.9397,2.953,2.9531,2.9532]},{"header":{"parameterUnit":"m.s-1","parameterCategory":1,"la1":30.2991,"la2":30.254,"lo1":-89.0895,"lo2":-89.0444,"dy":0.0017,"dx":0.0017,"nx":28,"ny":28,"refTime":"2026-02-06T09:00:00:Z","depth":0,"parameterNumber":3,"parameterNumberName":"V-component_of_WINDS"},"data":[0,0,0,0,0,0,0,0,0,0,0,0,0,0,0,0,0,0,0,0,0,0,0,0,0,0,0,0,0,0,0,0,0,0,0,0,0,0,0,0,0,0,0,0,0,0,0,0,0,0,0,0,0,0,0,0,0,0,-0.433,-0.4331,0,-0.4419,-0.442,-0.4421,-0.4446,-0.4445,-0.4445,-0.4444,-0.4538,-0.4541,-0.4544,0,0,0,0,0,0,0,0,0,0,0,0,0,-0.4184,-0.4187,-0.433,-0.4331,-0.4332,-0.4419,-0.442,-0.4422,-0.4446,-0.4445,-0.4445,-0.4444,-0.4537,-0.4541,-0.4544,0,0,0,0,0,0,0,0,0,0,0,0,0,-0.4258,-0.4187,-0.433,-0.4355,-0.4358,-0.4419,-0.442,-0.4422,-0.4446,-0.4445,-0.4445,-0.4444,-0.4536,-0.454,-0.4545,-0.4588,0,0,-0.4559,-0.456,0,0,0,0,0,0,0,0,-0.4254,-0.4263,-0.435,-0.4353,-0.4357,-0.4421,-0.4403,-0.4478,-0.4446,-0.4413,-0.4444,-0.4443,-0.45,-0.4507,-0.4526,-0.4593,-0.4597,-0.4559,-0.4562,-0.4564,-0.4565,0,0,0,0,0,0,0,-0.4248,-0.4259,-0.4366,-0.4351,-0.4355,-0.4363,-0.4372,-0.4418,-0.446,-0.4416,-0.4418,-0.4428,-0.4502,-0.4521,-0.4528,-0.4598,-0.4559,-0.4563,-0.4566,-0.4567,-0.4706,-0.4707,0,0,0,0,0,0,-0.4239,-0.4255,-0.4363,-0.4368,-0.4302,-0.4366,-0.4377,-0.4401,-0.4459,-0.4467,-0.4428,-0.4428,-0.4514,-0.4523,-0.4532,-0.4587,-0.4564,-0.4568,-0.457,-0.4705,-0.4707,-0.4708,0,0,0,0,0,0,-0.4235,-0.4248,-0.4359,-0.4312,-0.4327,-0.4369,-0.4396,-0.4403,-0.4423,-0.4469,-0.4477,-0.4441,-0.4514,-0.4525,-0.4574,-0.4591,-0.457,-0.4574,-0.4704,-0.4706,-0.4707,-0.4697,0,0,0,0,0,0,-0.4231,-0.4247,-0.4263,-0.4312,-0.4329,-0.4399,-0.4397,-0.4405,-0.443,-0.4431,-0.4482,-0.449,-0.4514,-0.4567,-0.4579,-0.4596,-0.4577,-0.4703,-0.4705,-0.4707,-0.4696,-0.4698,-0.47,0,0,0,0,0,-0.4226,-0.4257,-0.4263,-0.4276,-0.435,-0.44,-0.441,-0.4436,-0.4431,-0.4449,-0.4478,-0.4489,-0.4587,-0.4572,-0.4585,-0.4604,-0.4702,-0.4704,-0.4707,-0.4696,-0.4698,-0.47,0,0,0,0,0,0,-0.4208,-0.4263,-0.4272,-0.4319,-0.4354,-0.4404,-0.4426,-0.4437,-0.4475,-0.4475,-0.4507,-0.4518,-0.4565,-0.459,-0.4572,-0.465,-0.4645,-0.465,-0.4632,-0.4635,-0.4636,-0.4629,-0.4581,0,0,0,0,0,-0.421,-0.4245,-0.4291,-0.4329,-0.4346,-0.4383,-0.4406,-0.4423,-0.4461,-0.4477,-0.451,-0.4547,-0.4587,-0.4612,-0.4651,-0.47,-0.4712,-0.472,-0.4722,-0.4723,-0.4727,-0.4756,-0.476,-0.4715,-0.4715,-0.4715,0,0,-0.4214,-0.4248,-0.4268,-0.4326,-0.4356,-0.4392,-0.4395,-0.4434,-0.4461,-0.4483,-0.453,-0.4556,-0.4601,-0.465,-0.4673,-0.4672,-0.4742,-0.4726,-0.4727,-0.473,-0.4759,-0.4763,-0.4767,-0.4717,-0.4716,-0.4716,0,0,-0.4239,-0.4268,-0.4303,-0.4333,-0.4377,-0.4401,-0.441,-0.4458,-0.4476,-0.4524,-0.4541,-0.4575,-0.4642,-0.4673,-0.4698,-0.4737,-0.4748,-0.4749,-0.4758,-0.4786,-0.479,-0.4793,-0.4808,-0.4812,-0.4752,-0.4752,-0.4752,0,-0.4238,-0.4293,-0.432,-0.4357,-0.4383,-0.4404,-0.444,-0.4468,-0.4523,-0.454,-0.4538,-0.4623,-0.4655,-0.4712,-0.4722,-0.4741,-0.4752,-0.4743,-0.4787,-0.479,-0.4794,-0.4808,-0.4814,-0.4752,-0.4752,-0.4752,-0.4752,0,-0.429,-0.4328,-0.4351,-0.4403,-0.4431,-0.4468,-0.4502,-0.4527,-0.4543,-0.4568,-0.4618,-0.4656,-0.4704,-0.4719,-0.4734,-0.4779,-0.4777,-0.478,-0.4776,-0.4798,-0.4812,-0.4817,-0.4752,-0.4752,-0.4752,-0.4752,0,0,-0.4306,-0.4373,-0.4381,-0.4406,-0.4457,-0.4487,-0.4526,-0.4571,-0.4593,-0.4631,-0.4665,-0.4722,-0.4725,-0.4753,-0.4773,-0.4797,-0.4827,-0.4798,-0.48,-0.4802,-0.488,-0.4877,-0.4883,-0.4835,-0.4836,-0.4837,-0.4876,0,-0.4338,-0.4406,-0.4432,-0.4488,-0.4524,-0.4545,-0.4579,-0.4615,-0.464,-0.4675,-0.4703,-0.4743,-0.4744,-0.4762,-0.4787,-0.4818,-0.4843,-0.4815,-0.4868,-0.4869,-0.4856,-0.489,-0.4887,-0.4922,-0.4882,-0.4883,-0.4884,0,-0.4384,-0.4422,-0.4481,-0.4529,-0.4545,-0.4575,-0.462,-0.4652,-0.4694,-0.4711,-0.4742,-0.4761,-0.4803,-0.4796,-0.4856,-0.4837,-0.486,-0.4879,-0.4881,-0.4887,-0.4877,-0.4897,-0.4934,-0.494,-0.4892,-0.4892,-0.4891,0,-0.439,-0.4456,-0.4501,-0.4521,-0.4577,-0.4598,-0.4623,-0.4664,-0.469,-0.473,-0.4747,-0.4791,-0.4816,-0.4851,-0.4881,-0.4873,-0.4938,-0.4933,-0.4954,-0.4954,-0.4967,-0.4966,-0.5008,-0.4981,-0.4981,-0.4981,-0.4981,0,-0.4423,-0.4459,-0.4504,-0.4531,-0.4573,-0.4603,-0.4644,-0.467,-0.4706,-0.474,-0.4761,-0.4793,-0.4831,-0.4868,-0.4892,-0.4939,-0.4949,-0.4965,-0.4971,-0.4963,-0.4961,-0.4979,-0.4977,-0.4983,-0.4982,-0.4982,-0.4982,0,-0.4437,-0.4468,-0.4518,-0.4568,-0.4581,-0.461,-0.4653,-0.4681,-0.4707,-0.475,-0.4762,-0.4803,-0.4848,-0.4882,-0.494,-0.4956,-0.5006,-0.5012,-0.4992,-0.4995,-0.5014,-0.5012,-0.507,-0.5079,-0.5045,-0.5045,-0.5046,0,-0.4456,-0.4484,-0.4537,-0.456,-0.4585,-0.4623,-0.465,-0.4682,-0.4709,-0.4759,-0.4782,-0.4828,-0.4866,-0.4937,-0.4973,-0.5018,-0.5026,-0.5043,-0.5033,-0.5025,-0.5027,-0.5025,-0.5029,-0.5045,-0.5045,-0.5045,-0.5045,0,-0.4486,-0.4501,-0.4538,-0.4582,-0.4613,-0.4649,-0.4685,-0.4704,-0.4742,-0.4773,-0.4818,-0.4848,-0.4907,-0.4953,-0.5002,-0.503,-0.5044,-0.5048,-0.5055,-0.5048,-0.5035,-0.5043,-0.4996,-0.5047,-0.5046,-0.5046,-0.5046,-0.5046,-0.4504,-0.453,-0.4571,-0.4613,-0.4643,-0.4677,-0.4706,-0.4736,-0.4774,-0.4825,-0.4842,-0.4889,-0.4932,-0.4999,-0.5027,-0.5065,-0.5065,-0.5076,-0.5079,-0.5081,-0.508,-0.5029,-0.5074,-0.5074,-0.5074,-0.5074,-0.5074,0,-0.4536,-0.4564,-0.4601,-0.4651,-0.4684,-0.4695,-0.4736,-0.4763,-0.4804,-0.4842,-0.488,-0.4933,-0.4978,-0.5019,-0.5066,-0.5089,-0.5097,-0.5101,-0.5099,-0.5106,-0.5077,-0.5066,-0.5093,-0.5093,-0.5093,-0.5093,-0.5093,-0.5093,-0.4556,-0.4601,-0.4621,-0.4682,-0.471,-0.4756,-0.4779,-0.4811,-0.4842,-0.49,-0.4937,-0.4963,-0.5002,-0.5053,-0.5095,-0.5106,-0.5123,-0.5125,-0.5137,-0.511,-0.5108,-0.5105,-0.5095,-0.5128,-0.5128,-0.5163,-0.5163,-0.5163]}]]